Time,TemperatureF,DewpointF,PressureIn,WindDirection,WindDirectionDegrees,WindSpeedMPH,WindSpeedGustMPH,Humidity,HourlyPrecipIn,Conditions,Clouds,dailyrainin,SoftwareType,DateUTC
2013-02-01 00:00:00,16.4,13.7,29.85,WNW,284,13.0,22.0,89,0.00,,---,0.00,VWS V13.01,2013-02-01 05:00:00,
2013-02-01 00:01:00,16.4,13.5,29.86,West,276,19.0,19.0,88,0.00,,---,0.00,VWS V13.01,2013-02-01 05:01:00,
2013-02-01 00:03:00,16.4,13.5,29.86,WNW,286,12.0,19.0,88,0.00,,---,0.00,VWS V13.01,2013-02-01 05:03:00,
2013-02-01 00:04:00,16.4,13.5,29.86,WNW,288,12.0,19.0,88,0.00,,---,0.00,VWS V13.01,2013-02-01 05:04:00,
2013-02-01 00:09:00,16.4,13.5,29.86,WNW,300,11.0,19.0,88,0.00,,---,0.00,VWS V13.01,2013-02-01 05:09:00,
2013-02-01 00:15:00,16.5,13.6,29.86,WNW,288,8.0,19.0,88,0.00,,---,0.00,VWS V13.01,2013-02-01 05:15:00,
2013-02-01 00:20:00,16.4,13.2,29.86,West,271,9.0,19.0,87,0.00,,---,0.00,VWS V13.01,2013-02-01 05:20:00,
2013-02-01 00:25:00,16.4,13.2,29.86,West,273,7.0,19.0,87,0.00,,---,0.00,VWS V13.01,2013-02-01 05:25:00,
2013-02-01 00:30:00,16.4,13.2,29.86,WNW,285,9.0,19.0,87,0.00,,---,0.00,VWS V13.01,2013-02-01 05:30:00,
2013-02-01 00:35:00,16.5,13.1,29.86,WNW,283,10.0,19.0,86,0.00,,---,0.00,VWS V13.01,2013-02-01 05:35:00,
2013-02-01 00:40:00,16.5,13.1,29.86,West,269,7.0,19.0,86,0.00,,---,0.00,VWS V13.01,2013-02-01 05:40:00,
2013-02-01 00:45:00,16.1,12.4,29.86,West,266,8.0,19.0,85,0.00,,---,0.00,VWS V13.01,2013-02-01 05:45:00,
2013-02-01 00:50:00,16.1,12.4,29.86,WSW,256,13.0,19.0,85,0.00,,---,0.00,VWS V13.01,2013-02-01 05:50:00,
2013-02-01 00:55:00,16.1,12.1,29.87,West,273,12.0,21.0,84,0.00,,---,0.00,VWS V13.01,2013-02-01 05:55:00,
2013-02-01 01:00:00,16.0,12.0,29.86,West,281,9.0,9.0,84,0.00,,---,0.00,VWS V13.01,2013-02-01 06:00:00,
2013-02-01 01:05:00,16.0,12.0,29.86,WNW,282,8.0,14.0,84,0.00,,---,0.00,VWS V13.01,2013-02-01 06:05:00,
2013-02-01 01:10:00,16.0,12.0,29.86,West,271,6.0,14.0,84,0.00,,---,0.00,VWS V13.01,2013-02-01 06:10:00,
2013-02-01 01:16:00,16.0,12.0,29.86,West,280,8.0,14.0,84,0.00,,---,0.00,VWS V13.01,2013-02-01 06:16:00,
2013-02-01 01:21:00,15.9,11.9,29.87,WNW,286,6.0,14.0,84,0.00,,---,0.00,VWS V13.01,2013-02-01 06:21:00,
2013-02-01 01:26:00,15.6,11.4,29.87,West,277,10.0,14.0,83,0.00,,---,0.00,VWS V13.01,2013-02-01 06:26:00,
2013-02-01 01:31:00,15.3,11.1,29.87,West,281,8.0,8.0,83,0.00,,---,0.00,VWS V13.01,2013-02-01 06:31:00,
2013-02-01 01:36:00,15.3,11.1,29.87,West,276,7.0,13.0,83,0.00,,---,0.00,VWS V13.01,2013-02-01 06:36:00,
2013-02-01 01:41:00,15.2,11.0,29.86,WNW,286,6.0,13.0,83,0.00,,---,0.00,VWS V13.01,2013-02-01 06:41:00,
2013-02-01 01:46:00,15.3,11.1,29.86,West,279,8.0,13.0,83,0.00,,---,0.00,VWS V13.01,2013-02-01 06:46:00,
2013-02-01 01:51:00,15.3,11.1,29.86,West,280,8.0,13.0,83,0.00,,---,0.00,VWS V13.01,2013-02-01 06:51:00,
2013-02-01 01:56:00,15.3,11.3,29.87,West,259,7.0,13.0,84,0.00,,---,0.00,VWS V13.01,2013-02-01 06:56:00,
2013-02-01 02:01:00,15.5,11.5,29.88,West,267,7.0,10.0,84,0.00,,---,0.00,VWS V13.01,2013-02-01 07:01:00,
2013-02-01 02:06:00,15.6,11.6,29.88,West,271,9.0,12.0,84,0.00,,---,0.00,VWS V13.01,2013-02-01 07:06:00,
2013-02-01 02:12:00,15.5,11.8,29.88,West,272,8.0,12.0,85,0.00,,---,0.00,VWS V13.01,2013-02-01 07:12:00,
2013-02-01 02:17:00,15.4,12.0,29.89,West,273,6.0,12.0,86,0.00,,---,0.00,VWS V13.01,2013-02-01 07:17:00,
2013-02-01 02:22:00,15.5,12.1,29.88,West,263,6.0,12.0,86,0.00,,---,0.00,VWS V13.01,2013-02-01 07:22:00,
2013-02-01 02:27:00,15.5,12.3,29.88,West,268,8.0,12.0,87,0.00,,---,0.00,VWS V13.01,2013-02-01 07:27:00,
2013-02-01 02:32:00,15.5,12.6,29.88,WNW,284,7.0,10.0,88,0.00,,---,0.00,VWS V13.01,2013-02-01 07:32:00,
2013-02-01 02:37:00,15.5,12.6,29.89,West,263,5.0,10.0,88,0.00,,---,0.00,VWS V13.01,2013-02-01 07:37:00,
2013-02-01 02:42:00,15.4,12.7,29.89,West,265,8.0,10.0,89,0.00,,---,0.00,VWS V13.01,2013-02-01 07:42:00,
2013-02-01 02:47:00,15.5,12.8,29.89,West,274,5.0,10.0,89,0.00,,---,0.00,VWS V13.01,2013-02-01 07:47:00,
2013-02-01 02:52:00,15.5,13.1,29.89,West,275,5.0,10.0,90,0.00,,---,0.00,VWS V13.01,2013-02-01 07:52:00,
2013-02-01 02:57:00,15.5,13.1,29.89,WNW,286,7.0,10.0,90,0.00,,---,0.00,VWS V13.01,2013-02-01 07:57:00,
2013-02-01 03:02:00,15.5,13.1,29.89,WNW,287,8.0,9.0,90,0.00,,---,0.00,VWS V13.01,2013-02-01 08:02:00,
2013-02-01 03:08:00,15.5,13.4,29.90,WNW,282,7.0,12.0,91,0.00,,---,0.00,VWS V13.01,2013-02-01 08:08:00,
2013-02-01 03:13:00,15.4,13.2,29.90,West,271,6.0,12.0,91,0.00,,---,0.00,VWS V13.01,2013-02-01 08:13:00,
2013-02-01 03:18:00,15.3,13.1,29.91,WNW,286,5.0,15.0,91,0.00,,---,0.00,VWS V13.01,2013-02-01 08:18:00,
2013-02-01 03:23:00,15.4,13.2,29.91,WSW,254,7.0,15.0,91,0.00,,---,0.00,VWS V13.01,2013-02-01 08:23:00,
2013-02-01 03:28:00,15.5,13.4,29.91,West,272,6.0,15.0,91,0.00,,---,0.00,VWS V13.01,2013-02-01 08:28:00,
2013-02-01 03:33:00,15.5,13.4,29.91,West,277,5.0,9.0,91,0.00,,---,0.00,VWS V13.01,2013-02-01 08:33:00,
2013-02-01 03:38:00,15.5,13.4,29.92,WNW,293,7.0,11.0,91,0.00,,---,0.00,VWS V13.01,2013-02-01 08:38:00,
2013-02-01 03:43:00,15.5,13.4,29.92,West,275,8.0,11.0,91,0.00,,---,0.00,VWS V13.01,2013-02-01 08:43:00,
2013-02-01 03:48:00,15.5,13.4,29.92,West,275,8.0,11.0,91,0.00,,---,0.00,VWS V13.01,2013-02-01 08:48:00,
2013-02-01 03:53:00,15.5,13.4,29.92,WNW,297,9.0,11.0,91,0.00,,---,0.00,VWS V13.01,2013-02-01 08:53:00,
2013-02-01 03:58:00,15.5,13.4,29.93,West,277,8.0,11.0,91,0.00,,---,0.00,VWS V13.01,2013-02-01 08:58:00,
2013-02-01 04:03:00,15.4,13.2,29.93,WNW,286,8.0,8.0,91,0.00,,---,0.00,VWS V13.01,2013-02-01 09:03:00,
2013-02-01 04:08:00,15.4,13.2,29.93,WNW,286,6.0,8.0,91,0.00,,---,0.00,VWS V13.01,2013-02-01 09:08:00,
2013-02-01 04:14:00,15.3,13.4,29.93,WNW,286,5.0,8.0,92,0.00,,---,0.00,VWS V13.01,2013-02-01 09:14:00,
2013-02-01 04:19:00,15.3,13.4,29.93,West,281,7.0,9.0,92,0.00,,---,0.00,VWS V13.01,2013-02-01 09:19:00,
2013-02-01 04:24:00,15.3,13.4,29.94,WNW,284,8.0,9.0,92,0.00,,---,0.00,VWS V13.01,2013-02-01 09:24:00,
2013-02-01 04:29:00,15.2,13.3,29.94,WNW,288,5.0,9.0,92,0.00,,---,0.00,VWS V13.01,2013-02-01 09:29:00,
2013-02-01 04:34:00,15.1,13.2,29.94,West,272,6.0,11.0,92,0.00,,---,0.00,VWS V13.01,2013-02-01 09:34:00,
2013-02-01 04:39:00,15.0,13.1,29.94,West,281,7.0,12.0,92,0.00,,---,0.00,VWS V13.01,2013-02-01 09:39:00,
2013-02-01 04:44:00,14.9,12.8,29.95,West,275,9.0,12.0,91,0.00,,---,0.00,VWS V13.01,2013-02-01 09:44:00,
2013-02-01 04:49:00,14.9,12.8,29.95,West,279,12.0,16.0,91,0.00,,---,0.00,VWS V13.01,2013-02-01 09:49:00,
2013-02-01 04:54:00,14.9,12.8,29.96,West,281,11.0,16.0,91,0.00,,---,0.00,VWS V13.01,2013-02-01 09:54:00,
2013-02-01 04:59:00,14.7,12.6,29.96,WNW,294,7.0,16.0,91,0.00,,---,0.00,VWS V13.01,2013-02-01 09:59:00,
2013-02-01 05:04:00,14.3,11.9,29.97,WNW,294,13.0,15.0,90,0.00,,---,0.00,VWS V13.01,2013-02-01 10:04:00,
2013-02-01 05:09:00,14.2,11.8,29.97,WNW,284,8.0,15.0,90,0.00,,---,0.00,VWS V13.01,2013-02-01 10:09:00,
2013-02-01 05:14:00,14.2,12.1,29.97,West,276,7.0,15.0,91,0.00,,---,0.00,VWS V13.01,2013-02-01 10:14:00,
2013-02-01 05:19:00,14.2,11.8,29.98,West,280,10.0,15.0,90,0.00,,---,0.00,VWS V13.01,2013-02-01 10:19:00,
2013-02-01 05:24:00,14.1,11.7,29.98,West,275,9.0,15.0,90,0.00,,---,0.00,VWS V13.01,2013-02-01 10:24:00,
2013-02-01 05:30:00,14.2,11.8,29.99,West,268,7.0,15.0,90,0.00,,---,0.00,VWS V13.01,2013-02-01 10:30:00,
2013-02-01 05:35:00,14.2,12.1,29.99,West,260,10.0,13.0,91,0.00,,---,0.00,VWS V13.01,2013-02-01 10:35:00,
2013-02-01 05:40:00,14.2,12.1,29.99,West,273,8.0,13.0,91,0.00,,---,0.00,VWS V13.01,2013-02-01 10:40:00,
2013-02-01 05:45:00,14.1,12.0,30.00,West,268,11.0,13.0,91,0.00,,---,0.00,VWS V13.01,2013-02-01 10:45:00,
2013-02-01 05:50:00,14.2,12.1,30.00,West,277,14.0,18.0,91,0.00,,---,0.00,VWS V13.01,2013-02-01 10:50:00,
2013-02-01 05:55:00,14.2,12.1,30.00,West,280,10.0,18.0,91,0.00,,---,0.00,VWS V13.01,2013-02-01 10:55:00,
2013-02-01 06:00:00,14.2,12.1,30.00,West,269,11.0,18.0,91,0.00,,---,0.00,VWS V13.01,2013-02-01 11:00:00,
2013-02-01 06:05:00,14.2,12.1,30.01,West,275,9.0,13.0,91,0.00,,---,0.00,VWS V13.01,2013-02-01 11:05:00,
2013-02-01 06:10:00,14.1,12.0,30.02,West,275,8.0,13.0,91,0.00,,---,0.00,VWS V13.01,2013-02-01 11:10:00,
2013-02-01 06:15:00,14.1,12.0,30.02,WNW,289,6.0,13.0,91,0.00,,---,0.00,VWS V13.01,2013-02-01 11:15:00,
2013-02-01 06:20:00,14.1,12.0,30.03,West,279,8.0,13.0,91,0.00,,---,0.00,VWS V13.01,2013-02-01 11:20:00,
2013-02-01 06:26:00,14.1,12.0,30.03,West,279,7.0,13.0,91,0.00,,---,0.00,VWS V13.01,2013-02-01 11:26:00,
2013-02-01 06:31:00,14.2,12.1,30.04,West,277,9.0,10.0,91,0.00,,---,0.00,VWS V13.01,2013-02-01 11:31:00,
2013-02-01 06:36:00,14.1,12.0,30.04,West,263,9.0,19.0,91,0.00,,---,0.00,VWS V13.01,2013-02-01 11:36:00,
2013-02-01 06:41:00,14.1,12.0,30.05,WNW,283,14.0,19.0,91,0.00,,---,0.00,VWS V13.01,2013-02-01 11:41:00,
2013-02-01 06:46:00,14.1,12.0,30.05,West,269,9.0,19.0,91,0.00,,---,0.00,VWS V13.01,2013-02-01 11:46:00,
2013-02-01 06:51:00,14.2,12.1,30.05,West,267,9.0,19.0,91,0.00,,---,0.00,VWS V13.01,2013-02-01 11:51:00,
2013-02-01 06:56:00,14.1,12.0,30.06,West,260,6.0,19.0,91,0.00,,---,0.00,VWS V13.01,2013-02-01 11:56:00,
2013-02-01 07:01:00,14.1,12.0,30.06,West,266,11.0,11.0,91,0.00,,---,0.00,VWS V13.01,2013-02-01 12:01:00,
2013-02-01 07:06:00,14.0,11.9,30.07,West,271,9.0,12.0,91,0.00,,---,0.00,VWS V13.01,2013-02-01 12:06:00,
2013-02-01 07:11:00,14.0,11.9,30.07,West,278,9.0,15.0,91,0.00,,---,0.00,VWS V13.01,2013-02-01 12:11:00,
2013-02-01 07:16:00,13.9,11.8,30.08,West,263,8.0,15.0,91,0.00,,---,0.00,VWS V13.01,2013-02-01 12:16:00,
2013-02-01 07:21:00,13.9,11.8,30.08,West,265,10.0,15.0,91,0.00,,---,0.00,VWS V13.01,2013-02-01 12:21:00,
2013-02-01 07:27:00,14.1,12.0,30.08,West,277,11.0,16.0,91,0.00,,---,0.00,VWS V13.01,2013-02-01 12:27:00,
2013-02-01 07:32:00,14.1,12.0,30.09,West,269,9.0,10.0,91,0.00,,---,0.00,VWS V13.01,2013-02-01 12:32:00,
2013-02-01 07:37:00,14.1,12.0,30.09,West,267,11.0,14.0,91,0.00,,---,0.00,VWS V13.01,2013-02-01 12:37:00,
2013-02-01 07:42:00,14.1,12.0,30.10,West,276,10.0,15.0,91,0.00,,---,0.00,VWS V13.01,2013-02-01 12:42:00,
2013-02-01 07:47:00,14.1,12.0,30.09,West,269,11.0,15.0,91,0.00,,---,0.00,VWS V13.01,2013-02-01 12:47:00,
2013-02-01 07:52:00,14.1,12.0,30.10,West,275,10.0,15.0,91,0.00,,---,0.00,VWS V13.01,2013-02-01 12:52:00,
2013-02-01 07:57:00,14.2,12.1,30.10,West,273,8.0,15.0,91,0.00,,---,0.00,VWS V13.01,2013-02-01 12:57:00,
2013-02-01 08:02:00,14.3,12.2,30.11,West,273,9.0,12.0,91,0.00,,---,0.00,VWS V13.01,2013-02-01 13:02:00,
2013-02-01 08:07:00,14.3,12.2,30.11,West,264,11.0,13.0,91,0.00,,---,0.00,VWS V13.01,2013-02-01 13:07:00,
2013-02-01 08:12:00,14.3,12.2,30.12,West,268,6.0,13.0,91,0.00,,---,0.00,VWS V13.01,2013-02-01 13:12:00,
2013-02-01 08:17:00,14.4,12.3,30.12,WNW,283,8.0,14.0,91,0.00,,---,0.00,VWS V13.01,2013-02-01 13:17:00,
2013-02-01 08:22:00,14.4,12.3,30.12,West,269,9.0,14.0,91,0.00,,---,0.00,VWS V13.01,2013-02-01 13:22:00,
2013-02-01 08:28:00,14.4,12.3,30.13,West,270,8.0,14.0,91,0.00,,---,0.00,VWS V13.01,2013-02-01 13:28:00,
2013-02-01 08:33:00,14.5,12.4,30.13,West,264,12.0,15.0,91,0.00,,---,0.00,VWS V13.01,2013-02-01 13:33:00,
2013-02-01 08:38:00,14.5,12.4,30.14,West,274,12.0,16.0,91,0.00,,---,0.00,VWS V13.01,2013-02-01 13:38:00,
2013-02-01 08:43:00,14.5,12.4,30.14,WNW,287,13.0,16.0,91,0.00,,---,0.00,VWS V13.01,2013-02-01 13:43:00,
2013-02-01 08:48:00,14.5,12.4,30.15,West,265,9.0,19.0,91,0.00,,---,0.00,VWS V13.01,2013-02-01 13:48:00,
2013-02-01 08:53:00,14.6,12.5,30.15,West,277,15.0,19.0,91,0.00,,---,0.00,VWS V13.01,2013-02-01 13:53:00,
2013-02-01 08:58:00,14.7,12.6,30.15,WSW,257,9.0,19.0,91,0.00,,---,0.00,VWS V13.01,2013-02-01 13:58:00,
2013-02-01 09:03:00,14.8,12.6,30.16,West,270,14.0,16.0,91,0.00,,---,0.00,VWS V13.01,2013-02-01 14:03:00,
2013-02-01 09:08:00,14.8,12.6,30.16,West,271,10.0,16.0,91,0.00,,---,0.00,VWS V13.01,2013-02-01 14:08:00,
2013-02-01 09:13:00,14.9,12.8,30.16,West,276,12.0,18.0,91,0.00,,---,0.00,VWS V13.01,2013-02-01 14:13:00,
2013-02-01 09:19:00,15.0,12.9,30.17,West,274,9.0,18.0,91,0.00,,---,0.00,VWS V13.01,2013-02-01 14:19:00,
2013-02-01 09:24:00,14.8,12.6,30.17,WNW,294,14.0,24.0,91,0.00,,---,0.00,VWS V13.01,2013-02-01 14:24:00,
2013-02-01 09:29:00,14.8,12.6,30.18,West,272,16.0,24.0,91,0.00,,---,0.00,VWS V13.01,2013-02-01 14:29:00,
2013-02-01 09:34:00,14.6,12.5,30.18,WNW,287,12.0,26.0,91,0.00,,---,0.00,VWS V13.01,2013-02-01 14:34:00,
2013-02-01 09:39:00,14.4,12.3,30.18,WNW,302,16.0,26.0,91,0.00,,---,0.00,VWS V13.01,2013-02-01 14:39:00,
2013-02-01 09:44:00,14.4,12.3,30.19,WNW,285,8.0,26.0,91,0.00,,---,0.00,VWS V13.01,2013-02-01 14:44:00,
2013-02-01 09:49:00,14.4,12.5,30.19,NW,304,9.0,26.0,92,0.00,,---,0.00,VWS V13.01,2013-02-01 14:49:00,
2013-02-01 09:54:00,14.4,12.5,30.19,WNW,294,19.0,26.0,92,0.00,,---,0.00,VWS V13.01,2013-02-01 14:54:00,
2013-02-01 09:59:00,14.4,12.3,30.19,WNW,300,10.0,26.0,91,0.00,,---,0.00,VWS V13.01,2013-02-01 14:59:00,
2013-02-01 10:04:00,14.5,12.6,30.20,WNW,301,6.0,11.0,92,0.00,,---,0.00,VWS V13.01,2013-02-01 15:04:00,
2013-02-01 10:09:00,14.8,12.9,30.20,WNW,293,8.0,11.0,92,0.00,,---,0.00,VWS V13.01,2013-02-01 15:09:00,
2013-02-01 10:14:00,15.0,13.1,30.20,WNW,295,11.0,15.0,92,0.00,,---,0.00,VWS V13.01,2013-02-01 15:14:00,
2013-02-01 10:19:00,15.0,13.1,30.21,WNW,291,6.0,15.0,92,0.00,,---,0.00,VWS V13.01,2013-02-01 15:19:00,
2013-02-01 10:25:00,15.0,13.1,30.21,West,281,14.0,15.0,92,0.00,,---,0.00,VWS V13.01,2013-02-01 15:25:00,
2013-02-01 10:30:00,15.1,13.2,30.22,WNW,282,12.0,16.0,92,0.00,,---,0.00,VWS V13.01,2013-02-01 15:30:00,
2013-02-01 10:35:00,15.2,13.1,30.22,West,267,13.0,19.0,91,0.00,,---,0.00,VWS V13.01,2013-02-01 15:35:00,
2013-02-01 10:40:00,15.4,13.2,30.23,WNW,283,14.0,19.0,91,0.00,,---,0.00,VWS V13.01,2013-02-01 15:40:00,
2013-02-01 10:45:00,15.1,12.9,30.23,NW,307,14.0,24.0,91,0.00,,---,0.00,VWS V13.01,2013-02-01 15:45:00,
2013-02-01 10:50:00,15.0,12.9,30.23,WNW,300,8.0,24.0,91,0.00,,---,0.00,VWS V13.01,2013-02-01 15:50:00,
2013-02-01 10:55:00,15.3,13.1,30.23,WNW,288,8.0,24.0,91,0.00,,---,0.00,VWS V13.01,2013-02-01 15:55:00,
2013-02-01 11:00:00,15.5,13.4,30.23,WNW,290,10.0,24.0,91,0.00,,---,0.00,VWS V13.01,2013-02-01 16:00:00,
2013-02-01 11:05:00,15.6,13.4,30.23,WNW,283,8.0,14.0,91,0.00,,---,0.00,VWS V13.01,2013-02-01 16:05:00,
2013-02-01 11:10:00,15.6,13.4,30.23,WNW,300,12.0,16.0,91,0.00,,---,0.00,VWS V13.01,2013-02-01 16:10:00,
2013-02-01 11:15:00,15.6,13.2,30.24,WNW,290,7.0,18.0,90,0.00,,---,0.00,VWS V13.01,2013-02-01 16:15:00,
2013-02-01 11:20:00,15.5,13.1,30.24,WNW,285,9.0,22.0,90,0.00,,---,0.00,VWS V13.01,2013-02-01 16:20:00,
2013-02-01 11:25:00,15.6,13.2,30.24,WNW,291,12.0,22.0,90,0.00,,---,0.00,VWS V13.01,2013-02-01 16:25:00,
2013-02-01 11:30:00,15.6,13.2,30.24,WNW,303,18.0,19.0,90,0.00,,---,0.00,VWS V13.01,2013-02-01 16:30:00,
2013-02-01 11:36:00,15.4,13.0,30.24,NW,304,18.0,20.0,90,0.00,,---,0.00,VWS V13.01,2013-02-01 16:36:00,
2013-02-01 11:41:00,15.3,12.9,30.25,NW,307,15.0,24.0,90,0.00,,---,0.00,VWS V13.01,2013-02-01 16:41:00,
2013-02-01 11:46:00,15.1,12.7,30.24,West,277,13.0,31.0,90,0.00,,---,0.00,VWS V13.01,2013-02-01 16:46:00,
2013-02-01 11:51:00,15.0,12.6,30.25,NW,304,13.0,31.0,90,0.00,,---,0.00,VWS V13.01,2013-02-01 16:51:00,
2013-02-01 11:56:00,15.5,13.1,30.25,NW,316,15.0,31.0,90,0.00,,---,0.00,VWS V13.01,2013-02-01 16:56:00,
2013-02-01 12:01:00,15.7,13.3,30.25,WNW,288,20.0,20.0,90,0.00,,---,0.00,VWS V13.01,2013-02-01 17:01:00,
2013-02-01 12:06:00,15.7,13.3,30.25,WNW,291,14.0,24.0,90,0.00,,---,0.00,VWS V13.01,2013-02-01 17:06:00,
2013-02-01 12:11:00,15.9,13.5,30.25,WNW,300,24.0,25.0,90,0.00,,---,0.00,VWS V13.01,2013-02-01 17:11:00,
2013-02-01 12:16:00,15.9,13.5,30.25,NNW,330,19.0,25.0,90,0.00,,---,0.00,VWS V13.01,2013-02-01 17:16:00,
2013-02-01 12:21:00,16.1,13.7,30.25,WNW,296,14.0,25.0,90,0.00,,---,0.00,VWS V13.01,2013-02-01 17:21:00,
2013-02-01 12:26:00,16.2,13.5,30.25,NW,304,15.0,27.0,89,0.00,,---,0.00,VWS V13.01,2013-02-01 17:26:00,
2013-02-01 12:31:00,16.1,13.4,30.25,NW,304,14.0,18.0,89,0.00,,---,0.00,VWS V13.01,2013-02-01 17:31:00,
2013-02-01 12:36:00,16.2,13.5,30.25,NW,304,9.0,22.0,89,0.00,,---,0.00,VWS V13.01,2013-02-01 17:36:00,
2013-02-01 12:42:00,16.6,13.9,30.25,NW,304,13.0,22.0,89,0.00,,---,0.00,VWS V13.01,2013-02-01 17:42:00,
2013-02-01 12:47:00,16.5,13.8,30.25,NW,312,9.0,22.0,89,0.00,,---,0.00,VWS V13.01,2013-02-01 17:47:00,
2013-02-01 12:52:00,16.0,13.3,30.26,WNW,298,13.0,22.0,89,0.00,,---,0.00,VWS V13.01,2013-02-01 17:52:00,
2013-02-01 12:57:00,15.7,12.8,30.26,West,277,15.0,22.0,88,0.00,,---,0.00,VWS V13.01,2013-02-01 17:57:00,
2013-02-01 13:02:00,15.4,12.5,30.26,WNW,290,16.0,20.0,88,0.00,,---,0.00,VWS V13.01,2013-02-01 18:02:00,
2013-02-01 13:07:00,15.4,12.5,30.26,NW,318,8.0,21.0,88,0.00,,---,0.00,VWS V13.01,2013-02-01 18:07:00,
2013-02-01 13:12:00,15.5,12.6,30.26,WNW,297,12.0,25.0,88,0.00,,---,0.00,VWS V13.01,2013-02-01 18:12:00,
2013-02-01 13:17:00,15.7,12.8,30.26,WNW,295,14.0,25.0,88,0.00,,---,0.00,VWS V13.01,2013-02-01 18:17:00,
2013-02-01 13:22:00,15.8,12.9,30.27,WNW,286,12.0,25.0,88,0.00,,---,0.00,VWS V13.01,2013-02-01 18:22:00,
2013-02-01 13:27:00,15.9,13.2,30.27,NNW,327,16.0,25.0,89,0.00,,---,0.00,VWS V13.01,2013-02-01 18:27:00,
2013-02-01 13:32:00,15.4,12.5,30.27,West,273,15.0,32.0,88,0.00,,---,0.00,VWS V13.01,2013-02-01 18:32:00,
2013-02-01 13:37:00,15.4,12.5,30.27,NW,306,20.0,32.0,88,0.00,,---,0.00,VWS V13.01,2013-02-01 18:37:00,
2013-02-01 13:42:00,15.6,12.4,30.27,West,280,13.0,32.0,87,0.00,,---,0.00,VWS V13.01,2013-02-01 18:42:00,
2013-02-01 13:47:00,15.9,12.2,30.27,WNW,292,18.0,32.0,85,0.00,,---,0.00,VWS V13.01,2013-02-01 18:47:00,
2013-02-01 13:52:00,16.0,12.0,30.27,West,280,15.0,32.0,84,0.00,,---,0.00,VWS V13.01,2013-02-01 18:52:00,
2013-02-01 13:58:00,15.9,11.4,30.27,WNW,292,15.0,32.0,82,0.00,,---,0.00,VWS V13.01,2013-02-01 18:58:00,
2013-02-01 14:03:00,16.1,11.6,30.28,WNW,288,13.0,19.0,82,0.00,,---,0.00,VWS V13.01,2013-02-01 19:03:00,
2013-02-01 14:08:00,16.0,11.2,30.28,WNW,284,23.0,24.0,81,0.00,,---,0.00,VWS V13.01,2013-02-01 19:08:00,
2013-02-01 14:13:00,16.0,11.2,30.28,WNW,296,14.0,24.0,81,0.00,,---,0.00,VWS V13.01,2013-02-01 19:13:00,
2013-02-01 14:18:00,16.2,11.1,30.29,NW,315,21.0,25.0,80,0.00,,---,0.00,VWS V13.01,2013-02-01 19:18:00,
2013-02-01 14:23:00,16.4,11.0,30.28,NW,320,10.0,25.0,79,0.00,,---,0.00,VWS V13.01,2013-02-01 19:23:00,
2013-02-01 14:28:00,16.9,11.2,30.29,West,272,15.0,25.0,78,0.00,,---,0.00,VWS V13.01,2013-02-01 19:28:00,
2013-02-01 14:33:00,16.4,10.8,30.29,WNW,287,19.0,23.0,78,0.00,,---,0.00,VWS V13.01,2013-02-01 19:33:00,
2013-02-01 14:38:00,16.0,11.5,30.29,West,273,12.0,26.0,82,0.00,,---,0.00,VWS V13.01,2013-02-01 19:38:00,
2013-02-01 14:43:00,16.4,11.6,30.30,WNW,289,11.0,26.0,81,0.00,,---,0.00,VWS V13.01,2013-02-01 19:43:00,
2013-02-01 14:48:00,17.2,11.5,30.30,NW,304,18.0,26.0,78,0.00,,---,0.00,VWS V13.01,2013-02-01 19:48:00,
2013-02-01 14:53:00,17.2,10.4,30.30,West,272,12.0,26.0,74,0.00,,---,0.00,VWS V13.01,2013-02-01 19:53:00,
2013-02-01 14:58:00,16.4,10.2,30.30,West,272,20.0,27.0,76,0.00,,---,0.00,VWS V13.01,2013-02-01 19:58:00,
2013-02-01 15:04:00,16.1,10.5,30.31,West,264,12.0,21.0,78,0.00,,---,0.00,VWS V13.01,2013-02-01 20:04:00,
2013-02-01 15:09:00,15.8,10.5,30.31,West,278,9.0,21.0,79,0.00,,---,0.00,VWS V13.01,2013-02-01 20:09:00,
2013-02-01 15:14:00,15.6,10.8,30.32,West,260,10.0,21.0,81,0.00,,---,0.00,VWS V13.01,2013-02-01 20:14:00,
2013-02-01 15:19:00,15.1,11.7,30.33,West,268,14.0,21.0,86,0.00,,---,0.00,VWS V13.01,2013-02-01 20:19:00,
2013-02-01 15:24:00,14.9,12.2,30.33,West,281,12.0,21.0,89,0.00,,---,0.00,VWS V13.01,2013-02-01 20:24:00,
2013-02-01 15:29:00,15.0,12.6,30.33,WSW,248,7.0,21.0,90,0.00,,---,0.00,VWS V13.01,2013-02-01 20:29:00,
2013-02-01 15:34:00,15.0,12.6,30.33,WNW,283,13.0,19.0,90,0.00,,---,0.00,VWS V13.01,2013-02-01 20:34:00,
2013-02-01 15:39:00,15.1,12.7,30.33,West,276,12.0,19.0,90,0.00,,---,0.00,VWS V13.01,2013-02-01 20:39:00,
2013-02-01 15:44:00,15.1,12.7,30.33,West,265,7.0,19.0,90,0.00,,---,0.00,VWS V13.01,2013-02-01 20:44:00,
2013-02-01 15:49:00,15.1,12.7,30.34,West,271,13.0,19.0,90,0.00,,---,0.00,VWS V13.01,2013-02-01 20:49:00,
2013-02-01 15:54:00,15.1,12.7,30.34,WNW,286,9.0,19.0,90,0.00,,---,0.00,VWS V13.01,2013-02-01 20:54:00,
2013-02-01 15:59:00,15.1,12.9,30.34,NW,313,12.0,19.0,91,0.00,,---,0.00,VWS V13.01,2013-02-01 20:59:00,
2013-02-01 16:05:00,15.1,12.9,30.35,West,280,14.0,20.0,91,0.00,,---,0.00,VWS V13.01,2013-02-01 21:05:00,
2013-02-01 16:10:00,15.1,12.7,30.34,West,275,15.0,22.0,90,0.00,,---,0.00,VWS V13.01,2013-02-01 21:10:00,
2013-02-01 16:15:00,14.9,12.5,30.35,WNW,283,11.0,23.0,90,0.00,,---,0.00,VWS V13.01,2013-02-01 21:15:00,
2013-02-01 16:20:00,14.6,12.5,30.35,WNW,288,14.0,23.0,91,0.00,,---,0.00,VWS V13.01,2013-02-01 21:20:00,
2013-02-01 16:25:00,14.6,12.5,30.35,West,273,12.0,23.0,91,0.00,,---,0.00,VWS V13.01,2013-02-01 21:25:00,
2013-02-01 16:30:00,14.7,12.6,30.36,WNW,283,12.0,23.0,91,0.00,,---,0.00,VWS V13.01,2013-02-01 21:30:00,
2013-02-01 16:35:00,14.7,12.6,30.35,West,270,12.0,19.0,91,0.00,,---,0.00,VWS V13.01,2013-02-01 21:35:00,
2013-02-01 16:40:00,14.6,12.2,30.36,West,278,10.0,19.0,90,0.00,,---,0.00,VWS V13.01,2013-02-01 21:40:00,
2013-02-01 16:45:00,14.4,12.0,30.36,WSW,253,11.0,24.0,90,0.00,,---,0.00,VWS V13.01,2013-02-01 21:45:00,
2013-02-01 16:50:00,14.1,11.7,30.37,WNW,287,13.0,24.0,90,0.00,,---,0.00,VWS V13.01,2013-02-01 21:50:00,
2013-02-01 16:56:00,13.9,11.5,30.37,WNW,285,19.0,24.0,90,0.00,,---,0.00,VWS V13.01,2013-02-01 21:56:00,
2013-02-01 17:01:00,13.7,11.3,30.37,West,259,18.0,22.0,90,0.00,,---,0.00,VWS V13.01,2013-02-01 22:01:00,
2013-02-01 17:06:00,13.7,11.3,30.38,West,279,10.0,22.0,90,0.00,,---,0.00,VWS V13.01,2013-02-01 22:06:00,
2013-02-01 17:11:00,13.7,11.3,30.38,West,275,11.0,22.0,90,0.00,,---,0.00,VWS V13.01,2013-02-01 22:11:00,
2013-02-01 17:16:00,13.5,11.1,30.38,West,263,8.0,22.0,90,0.00,,---,0.00,VWS V13.01,2013-02-01 22:16:00,
2013-02-01 17:21:00,13.5,11.1,30.38,West,277,12.0,22.0,90,0.00,,---,0.00,VWS V13.01,2013-02-01 22:21:00,
2013-02-01 17:26:00,13.4,11.0,30.39,West,269,7.0,22.0,90,0.00,,---,0.00,VWS V13.01,2013-02-01 22:26:00,
2013-02-01 17:31:00,13.4,10.8,30.38,West,263,10.0,12.0,89,0.00,,---,0.00,VWS V13.01,2013-02-01 22:31:00,
2013-02-01 17:36:00,13.2,10.6,30.39,West,274,11.0,21.0,89,0.00,,---,0.00,VWS V13.01,2013-02-01 22:36:00,
2013-02-01 17:41:00,13.0,10.4,30.39,West,280,11.0,26.0,89,0.00,,---,0.00,VWS V13.01,2013-02-01 22:41:00,
2013-02-01 17:46:00,13.0,10.4,30.39,West,274,12.0,26.0,89,0.00,,---,0.00,VWS V13.01,2013-02-01 22:46:00,
2013-02-01 17:51:00,12.8,9.9,30.39,West,280,9.0,26.0,88,0.00,,---,0.00,VWS V13.01,2013-02-01 22:51:00,
2013-02-01 17:56:00,12.7,9.8,30.40,West,271,10.0,26.0,88,0.00,,---,0.00,VWS V13.01,2013-02-01 22:56:00,
2013-02-01 18:01:00,12.7,9.6,30.40,West,264,10.0,14.0,87,0.00,,---,0.00,VWS V13.01,2013-02-01 23:01:00,
2013-02-01 18:07:00,12.8,9.7,30.40,WNW,286,11.0,14.0,87,0.00,,---,0.00,VWS V13.01,2013-02-01 23:07:00,
2013-02-01 18:12:00,12.8,9.7,30.40,West,263,9.0,15.0,87,0.00,,---,0.00,VWS V13.01,2013-02-01 23:12:00,
2013-02-01 18:17:00,12.8,9.4,30.40,West,275,13.0,18.0,86,0.00,,---,0.00,VWS V13.01,2013-02-01 23:17:00,
2013-02-01 18:22:00,12.7,9.1,30.41,West,269,22.0,22.0,85,0.00,,---,0.00,VWS V13.01,2013-02-01 23:22:00,
2013-02-01 18:27:00,12.6,9.0,30.41,West,271,13.0,22.0,85,0.00,,---,0.00,VWS V13.01,2013-02-01 23:27:00,
2013-02-01 18:32:00,12.6,8.4,30.41,West,259,13.0,14.0,83,0.00,,---,0.00,VWS V13.01,2013-02-01 23:32:00,
2013-02-01 18:37:00,12.5,8.1,30.42,West,273,12.0,16.0,82,0.00,,---,0.00,VWS V13.01,2013-02-01 23:37:00,
2013-02-01 18:42:00,12.3,7.6,30.42,West,277,11.0,16.0,81,0.00,,---,0.00,VWS V13.01,2013-02-01 23:42:00,
2013-02-01 18:47:00,12.1,6.8,30.41,West,261,10.0,19.0,79,0.00,,---,0.00,VWS V13.01,2013-02-01 23:47:00,
2013-02-01 18:52:00,12.1,6.3,30.42,West,274,11.0,23.0,77,0.00,,---,0.00,VWS V13.01,2013-02-01 23:52:00,
2013-02-01 18:57:00,11.8,5.7,30.42,West,264,12.0,23.0,76,0.00,,---,0.00,VWS V13.01,2013-02-01 23:57:00,
2013-02-01 19:03:00,11.5,5.1,30.42,West,271,9.0,16.0,75,0.00,,---,0.00,VWS V13.01,2013-02-02 00:03:00,
2013-02-01 19:08:00,11.7,5.3,30.42,West,266,13.0,19.0,75,0.00,,---,0.00,VWS V13.01,2013-02-02 00:08:00,
2013-02-01 19:13:00,11.7,5.3,30.43,West,281,13.0,19.0,75,0.00,,---,0.00,VWS V13.01,2013-02-02 00:13:00,
2013-02-01 19:18:00,11.7,5.0,30.43,West,271,11.0,19.0,74,0.00,,---,0.00,VWS V13.01,2013-02-02 00:18:00,
2013-02-01 19:23:00,11.7,5.0,30.43,West,267,11.0,19.0,74,0.00,,---,0.00,VWS V13.01,2013-02-02 00:23:00,
2013-02-01 19:28:00,11.4,4.7,30.43,West,268,15.0,19.0,74,0.00,,---,0.00,VWS V13.01,2013-02-02 00:28:00,
2013-02-01 19:33:00,11.4,5.0,30.43,West,260,20.0,21.0,75,0.00,,---,0.00,VWS V13.01,2013-02-02 00:33:00,
2013-02-01 19:38:00,11.2,4.5,30.44,West,268,12.0,21.0,74,0.00,,---,0.00,VWS V13.01,2013-02-02 00:38:00,
2013-02-01 19:43:00,11.0,4.6,30.44,West,267,13.0,22.0,75,0.00,,---,0.00,VWS V13.01,2013-02-02 00:43:00,
2013-02-01 19:49:00,11.0,4.6,30.44,WNW,284,14.0,22.0,75,0.00,,---,0.00,VWS V13.01,2013-02-02 00:49:00,
2013-02-01 19:54:00,10.9,4.6,30.44,West,267,12.0,22.0,75,0.00,,---,0.00,VWS V13.01,2013-02-02 00:54:00,
2013-02-01 19:59:00,10.9,4.2,30.45,WSW,256,13.0,22.0,74,0.00,,---,0.00,VWS V13.01,2013-02-02 00:59:00,
2013-02-01 20:04:00,10.9,4.2,30.44,West,259,14.0,19.0,74,0.00,,---,0.00,VWS V13.01,2013-02-02 01:04:00,
2013-02-01 20:09:00,10.9,4.2,30.44,West,281,13.0,20.0,74,0.00,,---,0.00,VWS V13.01,2013-02-02 01:09:00,
2013-02-01 20:14:00,10.6,4.2,30.45,West,271,13.0,20.0,75,0.00,,---,0.00,VWS V13.01,2013-02-02 01:14:00,
2013-02-01 20:19:00,10.9,4.6,30.45,West,274,24.0,24.0,75,0.00,,---,0.00,VWS V13.01,2013-02-02 01:19:00,
2013-02-01 20:24:00,10.9,4.6,30.45,West,273,13.0,24.0,75,0.00,,---,0.00,VWS V13.01,2013-02-02 01:24:00,
2013-02-01 20:29:00,10.9,4.6,30.45,WSW,257,19.0,26.0,75,0.00,,---,0.00,VWS V13.01,2013-02-02 01:29:00,
2013-02-01 20:34:00,11.0,4.6,30.45,West,276,16.0,21.0,75,0.00,,---,0.00,VWS V13.01,2013-02-02 01:34:00,
2013-02-01 20:40:00,11.1,4.7,30.46,WSW,250,10.0,26.0,75,0.00,,---,0.00,VWS V13.01,2013-02-02 01:40:00,
2013-02-01 20:45:00,11.2,4.5,30.46,West,275,13.0,26.0,74,0.00,,---,0.00,VWS V13.01,2013-02-02 01:45:00,
2013-02-01 20:50:00,11.2,4.5,30.46,West,269,13.0,26.0,74,0.00,,---,0.00,VWS V13.01,2013-02-02 01:50:00,
2013-02-01 20:55:00,11.1,4.4,30.47,West,279,11.0,26.0,74,0.00,,---,0.00,VWS V13.01,2013-02-02 01:55:00,
2013-02-01 21:00:00,11.0,4.3,30.47,WNW,283,14.0,14.0,74,0.00,,---,0.00,VWS V13.01,2013-02-02 02:00:00,
2013-02-01 21:05:00,10.9,4.2,30.47,West,271,11.0,19.0,74,0.00,,---,0.00,VWS V13.01,2013-02-02 02:05:00,
2013-02-01 21:10:00,10.6,4.0,30.47,West,269,11.0,19.0,74,0.00,,---,0.00,VWS V13.01,2013-02-02 02:10:00,
2013-02-01 21:15:00,10.6,4.0,30.47,West,265,10.0,19.0,74,0.00,,---,0.00,VWS V13.01,2013-02-02 02:15:00,
2013-02-01 21:20:00,10.5,3.9,30.47,West,267,9.0,19.0,74,0.00,,---,0.00,VWS V13.01,2013-02-02 02:20:00,
2013-02-01 21:26:00,10.4,3.8,30.47,West,261,7.0,19.0,74,0.00,,---,0.00,VWS V13.01,2013-02-02 02:26:00,
2013-02-01 21:31:00,10.3,4.0,30.48,West,269,12.0,12.0,75,0.00,,---,0.00,VWS V13.01,2013-02-02 02:31:00,
2013-02-01 21:36:00,10.2,3.9,30.48,West,269,8.0,16.0,75,0.00,,---,0.00,VWS V13.01,2013-02-02 02:36:00,
2013-02-01 21:41:00,9.9,3.6,30.48,West,267,7.0,16.0,75,0.00,,---,0.00,VWS V13.01,2013-02-02 02:41:00,
2013-02-01 21:46:00,9.5,3.5,30.48,West,276,5.0,16.0,76,0.00,,---,0.00,VWS V13.01,2013-02-02 02:46:00,
2013-02-01 21:51:00,9.5,3.8,30.48,West,269,7.0,16.0,77,0.00,,---,0.00,VWS V13.01,2013-02-02 02:51:00,
2013-02-01 21:56:00,9.6,3.6,30.49,West,279,7.0,16.0,76,0.00,,---,0.00,VWS V13.01,2013-02-02 02:56:00,
2013-02-01 22:01:00,9.1,3.4,30.49,West,271,6.0,8.0,77,0.00,,---,0.00,VWS V13.01,2013-02-02 03:01:00,
2013-02-01 22:06:00,9.0,3.3,30.49,West,269,8.0,10.0,77,0.00,,---,0.00,VWS V13.01,2013-02-02 03:06:00,
2013-02-01 22:12:00,9.0,3.5,30.49,West,267,2.0,10.0,78,0.00,,---,0.00,VWS V13.01,2013-02-02 03:12:00,
2013-02-01 22:17:00,8.9,3.5,30.48,WSW,250,5.0,10.0,78,0.00,,---,0.00,VWS V13.01,2013-02-02 03:17:00,
2013-02-01 22:22:00,8.9,3.5,30.48,West,260,2.0,10.0,78,0.00,,---,0.00,VWS V13.01,2013-02-02 03:22:00,
2013-02-01 22:27:00,8.7,3.3,30.48,West,265,7.0,12.0,78,0.00,,---,0.00,VWS V13.01,2013-02-02 03:27:00,
2013-02-01 22:32:00,8.7,3.3,30.49,West,273,6.0,9.0,78,0.00,,---,0.00,VWS V13.01,2013-02-02 03:32:00,
2013-02-01 22:37:00,8.3,2.9,30.49,WSW,256,11.0,14.0,78,0.00,,---,0.00,VWS V13.01,2013-02-02 03:37:00,
2013-02-01 22:42:00,8.3,2.6,30.49,West,264,7.0,14.0,77,0.00,,---,0.00,VWS V13.01,2013-02-02 03:42:00,
2013-02-01 22:47:00,8.5,3.1,30.49,West,269,6.0,14.0,78,0.00,,---,0.00,VWS V13.01,2013-02-02 03:47:00,
2013-02-01 22:52:00,8.6,3.2,30.49,West,264,6.0,14.0,78,0.00,,---,0.00,VWS V13.01,2013-02-02 03:52:00,
2013-02-01 22:57:00,8.7,3.3,30.49,WSW,251,9.0,14.0,78,0.00,,---,0.00,VWS V13.01,2013-02-02 03:57:00,
2013-02-01 23:03:00,8.7,3.0,30.49,SW,235,8.0,9.0,77,0.00,,---,0.00,VWS V13.01,2013-02-02 04:03:00,
2013-02-01 23:08:00,9.1,3.4,30.49,West,267,7.0,11.0,77,0.00,,---,0.00,VWS V13.01,2013-02-02 04:08:00,
2013-02-01 23:13:00,9.3,3.6,30.49,West,260,6.0,11.0,77,0.00,,---,0.00,VWS V13.01,2013-02-02 04:13:00,
2013-02-01 23:18:00,9.7,3.7,30.49,West,266,8.0,11.0,76,0.00,,---,0.00,VWS V13.01,2013-02-02 04:18:00,
2013-02-01 23:23:00,9.9,3.9,30.49,West,269,7.0,11.0,76,0.00,,---,0.00,VWS V13.01,2013-02-02 04:23:00,
2013-02-01 23:28:00,10.3,4.0,30.48,West,274,11.0,13.0,75,0.00,,---,0.00,VWS V13.01,2013-02-02 04:28:00,
2013-02-01 23:33:00,10.5,3.9,30.48,West,281,8.0,15.0,74,0.00,,---,0.00,VWS V13.01,2013-02-02 04:33:00,
2013-02-01 23:39:00,10.5,4.2,30.48,West,274,7.0,15.0,75,0.00,,---,0.00,VWS V13.01,2013-02-02 04:39:00,
2013-02-01 23:44:00,10.5,4.2,30.49,West,269,8.0,15.0,75,0.00,,---,0.00,VWS V13.01,2013-02-02 04:44:00,
2013-02-01 23:49:00,10.8,3.9,30.49,West,275,15.0,15.0,73,0.00,,---,0.00,VWS V13.01,2013-02-02 04:49:00,
2013-02-01 23:54:00,11.1,3.8,30.49,WNW,287,15.0,18.0,72,0.00,,---,0.00,VWS V13.01,2013-02-02 04:54:00,
2013-02-01 23:59:00,11.3,3.7,30.49,West,259,11.0,25.0,71,0.00,,---,0.00,VWS V13.01,2013-02-02 04:59:00,